Weather History for Fairbanks Eiels, AK

Change the Weather History Date:

Tuesday, September 3, 2013

  Actual Average Record
Temperature  
Mean Temperature 58 °F -  
Max Temperature 73 °F 58 °F 74 °F (1972)
Min Temperature 44 °F 38 °F 27 °F (1980)
Degree Days  
Heating Degree Days 7    
Growing Degree Days 8 (Base 50)    
Moisture  
Dew Point 47 °F    
Average Humidity 78    
Maximum Humidity 100    
Minimum Humidity 37    
Precipitation  
Precipitation 0.03 in - - ()
Sea Level Pressure  
Sea Level Pressure 29.33 in    
Wind  
Wind Speed 3 mph (ESE)    
Max Wind Speed 17 mph    
Max Gust Speed 21 mph    
Visibility 8 miles    
Events Rain    
Averages and records for this station are not official NWS values.
T = Trace of Precipitation, MM = Missing Value Source: NWS Daily Summary

Daily Weather History Graph

Daily Weather History Graph

Search for Another Location

Airport:

Trip Planner

Search our weather history database for the weather conditions in past years. The results will help you decide how hot, cold, wet, or windy it might be!

Date:

Astronomy

Sep. 03, 2013 Rise Set
Actual Time 6:36 AM AKDT 8:56 PM AKDT
Civil Twilight 5:42 AM AKDT 9:50 PM AKDT
Nautical Twilight 4:28 AM AKDT 11:02 PM AKDT
Astronomical Twilight 2:20 AM AKDT 1:13 AM AKDT
Moon 4:43 AM AKDT (9/3) 7:52 PM AKDT (9/3)
Length of Visible Light 16h 07m
Length of Day
14h 20m
Waning Crescent, 3% of the Moon is Illuminated
Sep 3
Waning Crescent
Sep 5
New
Sep 12
First Quarter
Sep 19
Full
Sep 26
Last Quarter

Hourly Weather History & Observations

Time (AKDT) Temp. Windchill Dew Point Humidity Pressure Visibility Wind Dir Wind Speed Gust Speed Precip Events Conditions
12:55 AM 53.8 °F - 49.6 °F 86% 29.42 in 10.0 mi Variable 4.6 mph - N/A   Overcast
1:55 AM 50.9 °F - 49.3 °F 94% 29.40 in 10.0 mi Calm Calm - N/A   Scattered Clouds
2:55 AM 50.0 °F - 48.7 °F 95% 29.41 in 10.0 mi Calm Calm - N/A   Overcast
3:52 AM 46.4 °F - 46.4 °F 100% 29.39 in 1.2 mi Calm Calm - N/A   Partly Cloudy
3:55 AM 46.9 °F - 46.2 °F 97% 29.40 in 1.0 mi Calm Calm - N/A   Partly Cloudy
3:57 AM 48.2 °F - 46.4 °F 93% 29.40 in 1.0 mi Calm Calm - N/A   Partly Cloudy
3:58 AM 48.2 °F - 46.4 °F 93% 29.40 in 1.2 mi Calm Calm - N/A   Partly Cloudy
4:04 AM 48.2 °F - 48.2 °F 100% 29.40 in 6.0 mi NNW 3.5 mph - N/A   Partly Cloudy
4:55 AM 46.4 °F - 45.9 °F 98% 29.40 in 10.0 mi Calm Calm - N/A   Clear
5:16 AM 44.6 °F 43.1 °F 44.6 °F 100% 29.41 in 4.0 mi Variable 3.5 mph - N/A   Clear
5:27 AM 44.6 °F 42.2 °F 44.6 °F 100% 29.41 in 6.0 mi SE 4.6 mph - N/A   Clear
5:55 AM 45.5 °F - 45.0 °F 98% 29.39 in 10.0 mi Calm Calm - N/A   Clear
6:55 AM 44.2 °F - 43.3 °F 97% 29.40 in 10.0 mi Calm Calm - N/A   Clear
7:55 AM 45.7 °F - 44.8 °F 97% 29.39 in 10.0 mi Calm Calm - N/A   Mostly Cloudy
8:55 AM 47.5 °F - 46.0 °F 95% 29.37 in 10.0 mi Calm Calm - N/A   Partly Cloudy
9:55 AM 50.0 °F - 48.2 °F 94% 29.36 in 10.0 mi Calm Calm - N/A   Partly Cloudy
10:55 AM 56.1 °F - 49.8 °F 79% 29.32 in 10.0 mi North 3.5 mph - 0.00 in   Scattered Clouds
11:55 AM 61.3 °F - 46.6 °F 58% 29.31 in 10.0 mi Calm Calm - N/A   Scattered Clouds
12:55 PM 67.1 °F - 45.3 °F 45% 29.28 in 10.0 mi ESE 8.1 mph - N/A   Mostly Cloudy
1:55 PM 70.2 °F - 45.1 °F 41% 29.26 in 10.0 mi ESE 17.3 mph - N/A   Partly Cloudy
2:55 PM 71.4 °F - 44.6 °F 38% 29.23 in 10.0 mi SE 11.5 mph - N/A   Scattered Clouds
3:55 PM 72.1 °F - 44.2 °F 37% 29.22 in 10.0 mi ESE 11.5 mph - N/A   Clear
4:55 PM 70.3 °F - 44.2 °F 39% 29.21 in 10.0 mi SE 8.1 mph - N/A   Clear
5:55 PM 71.1 °F - 45.1 °F 39% 29.20 in 10.0 mi ESE 8.1 mph - N/A   Clear
6:55 PM 68.2 °F - 45.7 °F 44% 29.19 in 10.0 mi East 4.6 mph - N/A   Scattered Clouds
7:55 PM 64.4 °F - 48.7 °F 57% 29.20 in 10.0 mi Calm Calm - N/A   Scattered Clouds
8:55 PM 57.0 °F - 49.6 °F 76% 29.27 in 10.0 mi West 11.5 mph 20.7 mph 0.02 in   Mostly Cloudy
9:55 PM 55.9 °F - 50.2 °F 81% 29.30 in 10.0 mi East 5.8 mph - 0.00 in Rain Light Rain
10:55 PM 55.0 °F - 50.9 °F 86% 29.32 in 10.0 mi Calm Calm - 0.01 in Rain Light Rain
11:55 PM 54.9 °F - 46.8 °F 74% 29.36 in 10.0 mi Calm Calm - 0.00 in   Mostly Cloudy